AirNav   Phillips 66 Aviation Fuel
 
 476 users online  

T94 Twin-Oaks Airport
San Antonio, Texas, USA

GOING TO SAN ANTONIO?


FAA INFORMATION EFFECTIVE 06 DECEMBER 2018

Location

FAA Identifier: T94
Lat/Long: 29-34-12.6730N / 098-28-06.2010W
29-34.211217N / 098-28.103350W
29.5701869 / -98.4683892
(estimated)
Elevation: 873 ft. / 266 m (estimated)
Variation: 07E (1985)
From city: 3 miles N of SAN ANTONIO, TX
Time zone: UTC -6 (UTC -5 during Daylight Saving Time)
Zip code: 78232

Airport Operations

Airport use: Open to the public
Activation date: 03/1964
Control tower: no
ARTCC: HOUSTON CENTER
FSS: SAN ANGELO FLIGHT SERVICE STATION
NOTAMs facility: SJT (NOTAM-D service available)
Attendance: UNATNDD
Wind indicator: yes
Segmented circle: no

Airport Communications

CTAF: 122.9
WX ASOS at SAT (2.2 nm S): PHONE 210-805-5583
WX ASOS at SSF (14 nm S): PHONE 210-927-9391
WX AWOS-3 at 5C1 (15 nm NW): 118.725 (830-755-9099)

Nearby radio navigation aids

VOR radial/distance  VOR name  Freq  Var
SATr177/4.4SAN ANTONIO VORTAC116.8008E
RNDr283/10.0RANDOLPH VORTAC112.3005E
SSFr347/(18.8)STINSON VOR108.4009E

 
NDB name  Hdg/Dist  Freq  Var  ID
ALAMO109/5.736804EAN .- -.
DEVINE037/35.735907EHHH .... .... ....
HONDO064/38.632908EHMA .... -- .-

Airport Services

Parking: hangars and tiedowns
Airframe service: MINOR
Powerplant service: MINOR
Bulk oxygen: NONE

Runway Information

Runway 12/30

Dimensions: 2225 x 30 ft. / 678 x 9 m
Surface: asphalt, in fair condition
Weight bearing capacity: 
Single wheel: 4.0
Runway edge markings: RY NUMBERS 10 FT TALL; CNTRLN STRIPE 20 FT LONG WITH 20 FT SPACES.
RUNWAY 12  RUNWAY 30
Gradient: 1.9%1.9%
Traffic pattern: leftleft
Markings: NSTD, in good conditionNSTD, in good condition
Obstructions: 65 ft. trees, 200 ft. from runway
+6 FT FENCE 30 FT L; ACES ROAD 50 FT R; BLDGS 60-100 FT L OF EXTDD CNTRLN; +30 FT TREE 17 FT FM RY END; +30-50 FT TREES FM THLD TO 200 FT FM THLD ACRS APCH; 5 FT FENCE 23 FT FM THLD ACRS APCH; 15 FT ROAD 34 FT FM THLD ACRS APCH.
34 ft. tree, 200 ft. from runway
6 FT FENCE 40 FT EAST OF RY; 5 FT FENCE 23 FT FM THLD ACROSS APPROACH; 13 FT ROAD 33 FT FM THLD ACROSS APPROACH.

Airport Ownership and Management from official FAA records

Ownership: Privately-owned
Owner: TWIN OAKS AIR PARK
630 HEIMER RD
SAN ANTONIO, TX 78232
Phone 210-494-3928
Manager: SHIRLEY FOWLER
630 HEIMER RD
SAN ANTONIO, TX 78232
Phone 210-494-3928

Airport Operational Statistics

Aircraft based on the field: 12
Single engine airplanes: 12
    
Aircraft operations: avg 48/month *
87% local general aviation
13% transient general aviation
* for 12-month period ending 12 May 2017

Additional Remarks

HGRS, TREES, BLDGS WITHIN 50' OF RWY.
RESIDENTAL HOUSES, HANGARS AND TREES OBSTRUCT RY PRIM SFC NORTHEAST OF RY.
ARPT CLSD AT NIGHT TO TRANSIENT ACFT.
WOODEN FENCE LCTD APRXLY 70 FT EAST OF RY ENTIRE LENGTH OF RY.
COORD ARR & DEP WITH SAN ANTONIO INTL ATCT.
FOR CD CTC SAT APCH AT 210-805-5516.

Instrument Procedures

There are no published instrument procedures at T94.

Some nearby airports with instrument procedures:

KSAT - San Antonio International Airport (2 nm S)
KRND - Randolph Air Force Base (10 nm E)
KSKF - Kelly Field Airport (13 nm SW)
KSSF - Stinson Municipal Airport (14 nm S)
5C1 - Boerne Stage Field Airport (15 nm NW)
 
Loc | Ops | Rwys | IFR | FBO | Links
Com | Nav | Svcs | Stats | Notes


 
Area around T94 (Twin-Oaks Airport)
 
Road maps at: MapQuest Bing Google
 
Aerial photo
WARNING: Photo may not be current or correct
Aerial photo of T94 (Twin-Oaks Airport)
Do you have a better or more recent aerial photo of Twin-Oaks Airport that you would like to share? If so, please send us your photo.

 
Sectional chart

 
Airport distance calculator
Flying to Twin-Oaks Airport? Find the distance to fly.

From to T94

Sunrise and sunset
Times for 16-Dec-2018
 Local
(UTC-6)
 Zulu
(UTC)
Morning civil twilight06:5712:57
Sunrise07:2313:23
Sunset17:3623:36
Evening civil twilight18:0200:02

Current date and time
Zulu (UTC)  16-Dec-2018 11:50:13
Local (UTC-6)  16-Dec-2018 05:50:13
 
METAR
KSAT 
2nm S 
161051Z 34003KT 10SM FEW250 03/M02 A3025 RMK AO2 SLP235 T00281022
KRND 
11nm E 
161056Z AUTO 33006KT 10SM CLR 02/M02 A3024 RMK AO2 SLP240 T00231019
KSKF 
13nm SW 
161056Z 35003KT 10SM CLR 01/M02 A3022 RMK SLP234 T00101017 $
KSSF 
14nm S 
161053Z AUTO 00000KT 10SM CLR 03/M01 A3024 RMK AO2 SLP239 T00281011
K5C1 
15nm NW 
161135Z AUTO 00000KT 10SM CLR M01/M03 A3027 RMK AO1
TAF
KSAT 
2nm S 
160527Z 1606/1712 VRB03KT P6SM FEW250 FM161800 20005KT P6SM SCT200 FM170000 VRB03KT P6SM SCT200
KSKF 
13nm SW 
161000Z 1610/1716 VRB06KT 9999 FEW240 QNH3018INS TX19/1620Z TN01/1611Z
KSSF 
14nm S 
160527Z 1606/1706 VRB03KT P6SM SKC
NOTAMs
Click for the latest NOTAMs
NOTAMs are issued by the DoD/FAA and will open in a separate window not controlled by AirNav.

 

 
 

Would you like to see your business listed on this page?

 If your business provides an interesting product or service to pilots, flight crews, aircraft, or users of the Twin-Oaks Airport, you should consider listing it here.  To start the listing process, click on the button below
 
Add a business
 

Other Pages about Twin-Oaks Airport

Update a link
 
Copyright © AirNav, LLC. All rights reserved. Privacy Policy  Contact